GW3142 Weather Reports


time (UTC)temp
C
wind
direction
speed
KPH
gust
KPH
rain 1hr
cm
rain 24hr
cm
rain mn
cm
humidity
%
barometer
mb
20260507030503 15 0 0.0 0.0 0.00 0.00 0.00 84 1018.1
20260507030003 15 0 0.0 0.0 0.00 0.00 0.00 84 1018.0
20260507025503 15 0 0.0 0.0 0.00 0.00 0.00 85 1018.0
20260507025003 14 0 0.0 0.0 0.00 0.00 0.00 85 1018.0
20260507024714 14 0 0.0 0.0 0.00 0.00 0.00 85 1018.0
20260507024003 14 0 0.0 0.0 0.00 0.00 0.00 85 1017.9
20260507023503 14 0 0.0 0.0 0.00 0.00 0.00 86 1017.9
20260507023213 14 0 0.0 0.0 0.00 0.00 0.00 86 1017.9
20260507022716 13 0 0.0 0.0 0.00 0.00 0.00 87 1017.9
20260507022003 13 0 0.0 0.0 0.00 0.00 0.00 87 1018.0
20260507021503 14 225 1.6 8.0 0.00 0.00 0.00 74 1017.9
20260507021003 15 225 1.6 8.0 0.00 0.00 0.00 74 1018.0
20260507020503 15 225 1.6 6.4 0.00 0.00 0.00 74 1018.0
20260507020003 15 225 3.2 6.4 0.00 0.00 0.00 74 1018.1
20260507015503 15 225 3.2 6.4 0.00 0.00 0.00 73 1018.2
20260507015003 15 225 3.2 8.0 0.00 0.00 0.00 73 1018.2
20260507014503 15 225 4.8 8.0 0.00 0.00 0.00 73 1018.3
20260507014003 15 225 4.8 8.0 0.00 0.00 0.00 73 1018.2
20260507013503 15 225 4.8 8.0 0.00 0.00 0.00 73 1018.2
20260507013003 15 225 4.8 8.0 0.00 0.00 0.00 73 1018.3
20260507012503 15 225 4.8 8.0 0.00 0.00 0.00 73 1018.2
20260507012003 16 225 4.8 8.0 0.00 0.00 0.00 73 1018.2
20260507011503 16 225 4.8 9.7 0.00 0.00 0.00 73 1018.3
20260507010503 15 225 4.8 9.7 0.00 0.00 0.00 74 1018.3
20260507010216 15 225 4.8 12.9 0.00 0.00 0.00 74 1018.2
20260507005503 15 225 8.0 12.9 0.00 0.00 0.00 73 1018.3
20260507005217 15 225 6.4 12.9 0.00 0.00 0.00 73 1018.3
20260507004503 15 225 6.4 9.7 0.00 0.00 0.00 73 1018.3
20260507004003 15 225 6.4 12.9 0.00 0.00 0.00 73 1018.3
20260507003503 15 225 6.4 12.9 0.00 0.00 0.00 73 1018.2
20260507003003 16 225 6.4 11.3 0.00 0.00 0.00 74 1018.1
20260507002717 16 225 6.4 11.3 0.00 0.00 0.00 73 1018.2
20260507002003 16 225 6.4 14.5 0.00 0.00 0.00 73 1018.2
20260507001713 16 225 6.4 14.5 0.00 0.00 0.00 73 1018.2
20260507001003 16 225 6.4 9.7 0.00 0.00 0.00 73 1018.3
20260507000714 16 225 6.4 12.9 0.00 0.00 0.00 73 1018.3
20260507000003 16 225 6.4 12.9 0.00 0.00 0.00 72 1018.3
20260506235503 16 225 8.0 12.9 0.00 0.00 0.00 73 1018.3
20260506235003 16 225 6.4 12.9 0.00 0.00 0.00 73 1018.3
20260506234503 16 225 6.4 16.1 0.00 0.00 0.00 73 1018.3
20260506234003 16 225 8.0 16.1 0.00 0.00 0.00 73 1018.2
20260506233503 17 225 6.4 11.3 0.00 0.00 0.00 72 1018.3
20260506233003 17 225 6.4 11.3 0.00 0.00 0.00 72 1018.4
20260506232503 17 225 6.4 12.9 0.00 0.00 0.00 72 1018.4
20260506232003 17 225 6.4 12.9 0.00 0.00 0.00 72 1018.3
20260506231714 17 225 6.4 12.9 0.00 0.00 0.00 72 1018.5
20260506231003 17 225 8.0 17.7 0.00 0.00 0.00 72 1018.6
20260506230503 17 225 8.0 17.7 0.00 0.00 0.00 73 1018.6
20260506230003 17 225 8.0 16.1 0.00 0.00 0.00 73 1018.6
20260506225503 17 225 8.0 16.1 0.00 0.00 0.00 73 1018.6
20260506225003 17 225 9.7 14.5 0.00 0.00 0.00 72 1018.7
20260506224716 17 225 9.7 14.5 0.00 0.00 0.00 73 1018.7
20260506224003 17 225 9.7 16.1 0.00 0.00 0.00 71 1018.8
20260506223503 17 225 8.0 14.5 0.00 0.00 0.00 72 1018.8
20260506223003 17 225 8.0 14.5 0.00 0.00 0.00 72 1018.9
20260506222713 17 225 8.0 16.1 0.00 0.00 0.00 72 1018.8
20260506222003 17 225 9.7 17.7 0.00 0.00 0.00 72 1018.9
20260506221503 17 226 9.7 17.7 0.00 0.00 0.00 72 1019.0
20260506221003 17 226 8.0 14.5 0.00 0.00 0.00 72 1019.0
20260506220503 17 226 9.7 16.1 0.00 0.00 0.00 72 1019.1
20260506220003 17 226 9.7 16.1 0.00 0.00 0.00 71 1019.1
20260506215503 17 226 9.7 16.1 0.00 0.00 0.00 71 1019.1
20260506215003 18 226 8.0 14.5 0.00 0.00 0.00 70 1019.2
20260506214503 18 227 6.4 14.5 0.00 0.00 0.00 70 1019.3
20260506214215 18 227 6.4 12.9 0.00 0.00 0.00 70 1019.2
20260506213503 19 227 4.8 12.9 0.00 0.00 0.00 69 1019.3
20260506213003 20 227 4.8 12.9 0.00 0.00 0.00 68 1019.4
20260506212503 20 227 3.2 12.9 0.00 0.00 0.00 69 1019.4
20260506212003 20 227 1.6 8.0 0.00 0.00 0.00 66 1019.4
20260506211503 20 227 1.6 8.0 0.00 0.00 0.00 68 1019.5
20260506211003 20 227 1.6 6.4 0.00 0.00 0.00 66 1019.5
20260506210503 20 227 0.0 6.4 0.00 0.00 0.00 67 1019.5
20260506210003 20 227 0.0 6.4 0.00 0.00 0.00 68 1019.6
20260506205503 20 227 0.0 6.4 0.00 0.00 0.00 67 1019.6
20260506205215 19 227 1.6 6.4 0.00 0.00 0.00 69 1019.5
20260506204713 19 227 3.2 8.0 0.00 0.00 0.00 68 1019.6
20260506204216 19 227 3.2 8.0 0.00 0.00 0.00 67 1019.6
20260506203503 20 227 1.6 8.0 0.00 0.00 0.00 67 1019.7
20260506203003 20 227 0.0 6.4 0.00 0.00 0.00 67 1019.7
20260506202503 20 227 1.6 8.0 0.00 0.00 0.00 70 1019.8
20260506202003 19 227 3.2 11.3 0.00 0.00 0.00 68 1019.9
20260506201715 18 227 3.2 12.9 0.00 0.00 0.00 70 1020.0
20260506201003 18 227 3.2 12.9 0.00 0.00 0.00 68 1020.0
20260506200503 18 227 1.6 9.7 0.00 0.00 0.00 67 1020.1
20260506200004 18 227 3.2 9.7 0.00 0.00 0.00 68 1020.1
20260506195503 18 227 3.2 8.0 0.00 0.00 0.00 69 1020.2
20260506195003 18 227 3.2 11.3 0.00 0.00 0.00 68 1020.2
20260506194503 18 227 3.2 11.3 0.00 0.00 0.00 68 1020.1
20260506194003 18 227 1.6 8.0 0.00 0.00 0.00 70 1020.3
20260506193503 18 227 0.0 4.8 0.00 0.00 0.00 68 1020.2
20260506193003 18 227 1.6 9.7 0.00 0.00 0.00 69 1020.3
20260506192503 18 227 0.0 9.7 0.00 0.00 0.00 69 1020.3
20260506192003 18 227 1.6 6.4 0.00 0.00 0.00 69 1020.3
20260506191503 17 227 1.6 9.7 0.00 0.00 0.00 70 1020.3
20260506191003 18 227 1.6 9.7 0.00 0.00 0.00 68 1020.3
20260506190503 17 227 1.6 6.4 0.00 0.00 0.00 69 1020.3
20260506190003 17 227 1.6 6.4 0.00 0.00 0.00 69 1020.4
20260506185503 17 227 1.6 8.0 0.00 0.00 0.00 69 1020.3
20260506185003 17 227 1.6 8.0 0.00 0.00 0.00 69 1020.4
20260506184503 17 227 1.6 6.4 0.00 0.00 0.00 69 1020.3
20260506184003 17 227 1.6 6.4 0.00 0.00 0.00 74 1020.3
20260506183503 17 227 1.6 6.4 0.00 0.00 0.00 74 1020.4
20260506183213 17 227 0.0 6.4 0.00 0.00 0.00 73 1020.4
20260506182503 17 227 0.0 11.3 0.00 0.00 0.00 72 1020.5
20260506182003 16 227 1.6 11.3 0.00 0.00 0.00 71 1020.5
20260506181503 16 227 0.0 6.4 0.00 0.00 0.00 71 1020.6
20260506181215 16 227 0.0 6.4 0.00 0.00 0.00 72 1020.5
20260506180503 16 227 1.6 6.4 0.00 0.00 0.00 73 1020.5
20260506180004 15 227 0.0 6.4 0.00 0.00 0.00 73 1020.5
20260506175503 15 227 0.0 6.4 0.00 0.00 0.00 73 1020.6
20260506175217 15 227 1.6 8.0 0.00 0.00 0.00 74 1020.6
20260506174715 15 227 1.6 8.0 0.00 0.00 0.00 74 1020.5
20260506174003 14 227 1.6 8.0 0.00 0.00 0.00 75 1020.5
20260506173716 14 227 1.6 8.0 0.00 0.00 0.00 76 1020.5
20260506173003 13 227 0.0 6.4 0.00 0.00 0.00 77 1020.5
20260506172503 13 227 1.6 8.0 0.00 0.00 0.00 78 1020.5
20260506172003 13 227 1.6 8.0 0.00 0.00 0.00 79 1020.5
20260506171503 12 227 1.6 8.0 0.00 0.00 0.00 79 1020.5
20260506171003 12 227 1.6 8.0 0.00 0.00 0.00 80 1020.7
20260506170503 11 227 1.6 8.0 0.00 0.00 0.00 80 1020.7
20260506170003 11 227 1.6 8.0 0.00 0.00 0.00 80 1020.6
20260506165503 11 227 1.6 11.3 0.00 0.00 0.00 80 1020.6
20260506165003 11 224 1.6 14.5 0.00 0.00 0.00 80 1020.5
20260506164503 10 221 1.6 14.5 0.00 0.00 0.00 80 1020.5
20260506164003 10 220 3.2 8.0 0.00 0.00 0.00 80 1020.5
20260506163503 10 220 3.2 8.0 0.00 0.00 0.00 80 1020.5
20260506163003 10 220 4.8 8.0 0.00 0.00 0.00 80 1020.5
20260506162717 10 220 6.4 8.0 0.00 0.00 0.00 80 1020.5
20260506162215 10 220 6.4 9.7 0.00 0.00 0.00 80 1020.6
20260506161503 10 220 4.8 9.7 0.00 0.00 0.00 80 1020.6
20260506161003 10 220 3.2 9.7 0.00 0.00 0.00 80 1020.5
20260506160503 10 219 0.0 4.8 0.00 0.00 0.00 80 1020.4
20260506160003 10 219 1.6 6.4 0.00 0.00 0.00 80 1020.4
20260506155715 10 219 1.6 8.0 0.00 0.00 0.00 80 1020.5
20260506155213 10 219 1.6 8.0 0.00 0.00 0.00 80 1020.5
20260506154716 10 218 0.0 4.8 0.00 0.00 0.00 80 1020.5
20260506154003 10 0 0.0 0.0 0.00 0.00 0.00 80 1020.4
20260506153503 10 0 0.0 0.0 0.00 0.00 0.00 80 1020.4
20260506153003 9 218 0.0 8.0 0.00 0.00 0.00 80 1020.3
20260506152503 9 218 1.6 8.0 0.00 0.00 0.00 80 1020.3
20260506152003 9 218 0.0 6.4 0.00 0.00 0.00 80 1020.4
20260506151503 10 0 0.0 0.0 0.00 0.00 0.00 80 1020.4
20260506151003 9 0 0.0 0.0 0.00 0.00 0.00 80 1020.3
20260506150503 9 0 0.0 0.0 0.00 0.00 0.00 80 1020.4
20260506150003 9 0 0.0 0.0 0.00 0.00 0.00 80 1020.4
20260506145503 9 0 0.0 0.0 0.00 0.00 0.00 80 1020.4
20260506145003 9 0 0.0 0.0 0.00 0.00 0.00 80 1020.3
20260506144503 9 0 0.0 0.0 0.00 0.00 0.00 80 1020.4
20260506144003 9 0 0.0 0.0 0.00 0.00 0.00 80 1020.3
20260506143503 9 0 0.0 0.0 0.00 0.00 0.00 80 1020.2
20260506143003 9 0 0.0 0.0 0.00 0.00 0.00 80 1020.2
20260506142503 8 0 0.0 0.0 0.00 0.00 0.00 80 1020.2
20260506142003 8 0 0.0 0.0 0.00 0.00 0.00 80 1020.2
20260506141503 8 0 0.0 0.0 0.00 0.00 0.00 80 1020.1
20260506141003 8 0 0.0 0.0 0.00 0.00 0.00 80 1020.2
20260506140715 8 0 0.0 0.0 0.00 0.00 0.00 80 1020.2
20260506140003 8 0 0.0 0.0 0.00 0.00 0.00 80 1020.2
20260506135503 8 0 0.0 0.0 0.00 0.00 0.00 79 1020.2
20260506135214 8 0 0.0 0.0 0.00 0.00 0.00 79 1020.1
20260506134503 8 0 0.0 0.0 0.00 0.00 0.00 79 1020.0
20260506134003 8 0 0.0 0.0 0.00 0.00 0.00 79 1019.8
20260506133503 8 0 0.0 0.0 0.00 0.00 0.00 79 1019.8
20260506133003 8 219 0.0 3.2 0.00 0.00 0.00 79 1019.7
20260506132714 8 219 0.0 3.2 0.00 0.00 0.00 80 1019.7
20260506132003 8 220 1.6 6.4 0.00 0.00 0.00 80 1019.6
20260506131503 8 220 1.6 8.0 0.00 0.00 0.00 79 1019.5
20260506131003 8 220 1.6 8.0 0.00 0.00 0.00 79 1019.5
20260506130716 8 220 1.6 6.4 0.00 0.00 0.00 79 1019.5
20260506130004 8 220 3.2 9.7 0.00 0.00 0.00 79 1019.6
20260506125717 8 220 4.8 9.7 0.00 0.00 0.00 79 1019.6
20260506125003 8 220 1.6 6.4 0.00 0.00 0.00 79 1019.5
20260506124503 8 0 0.0 0.0 0.00 0.00 0.00 79 1019.4
20260506124003 8 0 0.0 0.0 0.00 0.00 0.00 79 1019.3
20260506123503 8 0 0.0 0.0 0.00 0.00 0.00 79 1019.4
20260506123003 8 219 0.0 4.8 0.00 0.00 0.00 79 1019.4
20260506122503 8 219 1.6 6.4 0.00 0.00 0.00 79 1019.4
20260506122003 8 219 0.0 6.4 0.00 0.00 0.00 79 1019.3
20260506121503 8 0 0.0 0.0 0.00 0.00 0.00 79 1019.2
20260506121003 8 0 0.0 0.0 0.00 0.00 0.00 79 1019.3
20260506120503 8 0 0.0 0.0 0.00 0.00 0.00 79 1019.3
20260506120003 8 0 0.0 0.0 0.00 0.00 0.00 79 1019.2
20260506115712 8 0 0.0 0.0 0.00 0.00 0.00 79 1019.2
20260506115216 8 0 0.0 0.0 0.00 0.00 0.00 79 1019.2
20260506114503 8 0 0.0 0.0 0.00 0.05 0.00 79 1019.0
20260506114018 8 0 0.0 0.0 0.00 0.05 0.00 79 1019.2
20260506113714 8 0 0.0 0.0 0.00 0.05 0.00 79 1019.1
20260506113003 9 0 0.0 0.0 0.00 0.05 0.00 79 1019.1
20260506112503 9 0 0.0 0.0 0.00 0.05 0.00 79 1019.1
20260506112003 9 0 0.0 0.0 0.00 0.05 0.00 79 1019.1
20260506111503 9 0 0.0 0.0 0.00 0.05 0.00 79 1019.1
20260506111003 9 0 0.0 0.0 0.00 0.05 0.00 79 1019.1
20260506110717 9 0 0.0 0.0 0.00 0.05 0.00 79 1019.0
20260506110215 9 0 0.0 0.0 0.00 0.05 0.00 79 1019.1
20260506105503 9 0 0.0 0.0 0.00 0.13 0.00 79 1018.9
20260506105003 9 0 0.0 0.0 0.00 0.13 0.00 79 1018.9
20260506104714 9 0 0.0 0.0 0.00 0.13 0.00 79 1018.9
20260506104003 9 0 0.0 0.0 0.00 0.13 0.00 79 1018.8
20260506103503 9 0 0.0 0.0 0.00 0.13 0.00 79 1018.9
20260506103003 9 0 0.0 0.0 0.00 0.13 0.00 79 1018.9
20260506102716 9 0 0.0 0.0 0.00 0.13 0.00 79 1018.9
20260506102214 9 0 0.0 0.0 0.00 0.13 0.00 79 1018.9
20260506101503 9 0 0.0 0.0 0.00 0.13 0.00 79 1018.9
20260506101003 9 0 0.0 0.0 0.00 0.13 0.00 79 1018.9
20260506100503 9 0 0.0 0.0 0.00 0.13 0.00 79 1018.9
20260506100003 9 0 0.0 0.0 0.00 0.13 0.00 79 1018.9
20260506095503 9 0 0.0 0.0 0.00 0.13 0.00 79 1018.9
20260506095003 9 0 0.0 0.0 0.00 0.13 0.00 79 1019.0
20260506094503 9 0 0.0 0.0 0.00 0.13 0.00 79 1018.9
20260506094003 9 220 0.0 1.6 0.00 0.13 0.00 79 1019.0
20260506093503 9 220 0.0 1.6 0.00 0.13 0.00 79 1019.0
20260506093003 9 0 0.0 0.0 0.00 0.13 0.00 79 1019.1
20260506092717 9 0 0.0 0.0 0.00 0.13 0.00 79 1019.1
20260506092214 9 0 0.0 0.0 0.00 0.13 0.00 79 1019.0
20260506091503 9 0 0.0 0.0 0.00 0.13 0.00 79 1018.9
20260506091003 9 0 0.0 0.0 0.00 0.13 0.00 79 1019.0
20260506090713 9 0 0.0 0.0 0.00 0.13 0.00 79 1019.0
20260506090216 9 0 0.0 0.0 0.00 0.13 0.00 79 1019.0
20260506085503 9 0 0.0 0.0 0.00 0.13 0.00 79 1019.0
20260506085003 9 0 0.0 0.0 0.00 0.13 0.00 79 1019.0
20260506084503 9 0 0.0 0.0 0.00 0.13 0.00 79 1019.0
20260506084003 9 0 0.0 0.0 0.00 0.13 0.00 79 1019.0
20260506083503 9 0 0.0 0.0 0.00 0.13 0.00 79 1019.0
20260506083214 9 0 0.0 0.0 0.00 0.13 0.00 79 1019.1
20260506082503 9 0 0.0 0.0 0.00 0.13 0.00 79 1019.2
20260506082003 9 0 0.0 0.0 0.00 0.13 0.00 79 1019.2
20260506081503 9 0 0.0 0.0 0.00 0.13 0.00 79 1019.2
20260506081216 9 0 0.0 0.0 0.00 0.13 0.00 79 1019.1
20260506080503 9 0 0.0 0.0 0.00 0.13 0.00 79 1019.1
20260506073503 8 0 0.0 0.0 0.00 0.13 0.00 79 1019.0
20260506073003 9 0 0.0 0.0 0.00 0.13 0.00 79 1018.9
20260506072713 9 0 0.0 0.0 0.00 0.13 0.00 79 1018.8
20260506072003 9 0 0.0 0.0 0.00 0.13 0.00 79 1018.8
20260506071714 9 0 0.0 0.0 0.00 0.13 0.00 79 1018.8
20260506071003 9 0 0.0 0.0 0.00 0.13 0.00 79 1018.7
20260506070715 9 0 0.0 0.0 0.00 0.13 0.00 79 1018.7
20260506070218 9 220 0.0 4.8 0.00 0.13 0.00 79 1018.7
20260506062503 9 220 1.6 4.8 0.00 0.13 0.13 79 1018.5
20260506062003 9 220 1.6 6.4 0.00 0.13 0.13 79 1018.6
20260506061503 9 220 3.2 9.7 0.00 0.13 0.13 79 1018.4
20260506061003 9 220 3.2 9.7 0.00 0.13 0.13 79 1018.5
20260506060503 9 220 4.8 8.0 0.00 0.13 0.13 79 1018.5
20260506051213 9 220 3.2 9.7 0.00 0.13 0.13 79 1018.1
20260506050503 9 220 3.2 9.7 0.00 0.13 0.13 79 1018.1
20260506045003 9 220 4.8 8.0 0.00 0.13 0.13 79 1017.9
20260506044503 9 220 4.8 8.0 0.00 0.13 0.13 79 1017.9
20260506044003 9 220 3.2 8.0 0.00 0.13 0.13 79 1017.9
20260506043503 10 220 3.2 8.0 0.00 0.13 0.13 79 1017.8
20260506043003 10 220 4.8 8.0 0.00 0.13 0.13 79 1017.8
20260506042503 9 220 3.2 8.0 0.00 0.13 0.13 79 1017.8
20260506042003 10 220 4.8 6.4 0.00 0.13 0.13 79 1017.7
20260506041503 10 220 4.8 9.7 0.00 0.13 0.13 79 1017.6
20260506041003 10 220 4.8 9.7 0.00 0.13 0.13 79 1017.6
20260506040503 10 220 4.8 8.0 0.00 0.13 0.13 79 1017.5
20260506040003 10 220 4.8 8.0 0.00 0.13 0.13 79 1017.5
20260506035503 10 220 3.2 6.4 0.00 0.13 0.13 79 1017.5
20260506035215 10 220 4.8 6.4 0.00 0.13 0.13 79 1017.4
20260506034503 10 220 4.8 9.7 0.00 0.13 0.13 79 1017.4
20260506034004 10 220 4.8 9.7 0.00 0.13 0.13 79 1017.3
20260506033503 10 220 4.8 8.0 0.00 0.13 0.13 79 1017.1
20260506033003 9 220 4.8 8.0 0.00 0.13 0.13 79 1017.2
20260506032503 9 220 4.8 8.0 0.00 0.13 0.13 79 1017.2
20260506032003 9 220 3.2 6.4 0.00 0.13 0.13 79 1017.0
20260506031716 9 220 3.2 6.4 0.00 0.13 0.13 79 1017.0
20260506031003 9 220 3.2 6.4 0.00 0.13 0.13 79 1016.9